Weather History for Keene, NH

Change the Weather History Date:

Monday, February 10, 2014

  Actual Average Record
Temperature  
Mean Temperature 13 °F -  
Max Temperature 23 °F 32 °F 53 °F (1955)
Min Temperature 3 °F 6 °F -23 °F (1948)
Degree Days  
Heating Degree Days 52    
Moisture  
Dew Point 6 °F    
Average Humidity 64    
Maximum Humidity 80    
Minimum Humidity 42    
Precipitation  
Precipitation 0.06 in - - ()
Sea Level Pressure  
Sea Level Pressure 30.03 in    
Wind  
Wind Speed 3 mph (NW)    
Max Wind Speed 15 mph    
Max Gust Speed 20 mph    
Visibility 9 miles    
Events      
Averages and records for this station are not official NWS values.
T = Trace of Precipitation, MM = Missing Value Source: NWS Daily Summary

Daily Weather History Graph

Daily Weather History Graph

Search for Another Location

Airport:

Trip Planner

Search our weather history database for the weather conditions in past years. The results will help you decide how hot, cold, wet, or windy it might be!

Date:

Astronomy

Feb. 10, 2014 Rise Set
Actual Time 6:53 AM EST 5:13 PM EST
Civil Twilight 6:23 AM EST 5:43 PM EST
Nautical Twilight 5:50 AM EST 6:16 PM EST
Astronomical Twilight 5:17 AM EST 6:49 PM EST
Moon 1:38 PM EST (2/10) 3:46 AM EST (2/10)
Length of Visible Light 11h 19m
Length of Day
10h 20m
Waxing Gibbous, 84% of the Moon is Illuminated
Feb 10
Waxing Gibbous
Feb 14
Full
Feb 22
Last Quarter
Mar 1
New
Mar 8
First Quarter

Hourly Weather History & Observations

Time (EST) Temp. Windchill Dew Point Humidity Pressure Visibility Wind Dir Wind Speed Gust Speed Precip Events Conditions
12:15 AM 21.2 °F - 15.8 °F 80% 29.91 in 4.0 mi Calm Calm - N/A   Overcast
12:35 AM 21.2 °F - 15.8 °F 80% 29.91 in 3.0 mi Calm Calm - N/A   Overcast
12:55 AM 21.2 °F - 15.8 °F 80% 29.90 in 7.0 mi Calm Calm - 0.01 in   Overcast
1:15 AM 21.2 °F - 15.8 °F 80% 29.89 in 10.0 mi Calm Calm - N/A   Overcast
1:35 AM 19.4 °F - 14.0 °F 80% 29.89 in 10.0 mi Calm Calm - 0.01 in   Mostly Cloudy
1:55 AM 19.4 °F - 14.0 °F 80% 29.89 in 10.0 mi Calm Calm - 0.01 in   Overcast
2:15 AM 21.2 °F 16.4 °F 15.8 °F 80% 29.89 in 10.0 mi SSW 3.5 mph - N/A   Overcast
2:35 AM 19.4 °F 12.8 °F 14.0 °F 80% 29.89 in 10.0 mi SSW 4.6 mph - 0.01 in   Overcast
2:55 AM 19.4 °F 12.8 °F 12.2 °F 74% 29.90 in 10.0 mi SSW 4.6 mph - 0.01 in   Overcast
3:15 AM - - - N/A% 29.89 in 10.0 mi SSW 4.6 mph - 0.01 in   Overcast
3:35 AM 19.4 °F - 12.2 °F 74% 29.90 in 10.0 mi Calm Calm - 0.01 in   Overcast
3:55 AM 17.6 °F - 12.2 °F 79% 29.90 in 10.0 mi Calm Calm - 0.01 in   Overcast
4:15 AM 17.6 °F - 12.2 °F 79% 29.91 in 9.0 mi Calm Calm - N/A   Overcast
4:35 AM 15.8 °F - 10.4 °F 79% 29.92 in 5.0 mi Calm Calm - N/A   Mostly Cloudy
4:55 AM 14.0 °F - 8.6 °F 79% 29.93 in 9.0 mi Calm Calm - N/A   Mostly Cloudy
5:15 AM 12.2 °F - 6.8 °F 79% 29.94 in 8.0 mi Calm Calm - 0.01 in   Mostly Cloudy
5:35 AM 14.0 °F - 8.6 °F 79% 29.94 in 10.0 mi Calm Calm - 0.01 in   Overcast
5:55 AM 14.0 °F - 8.6 °F 79% 29.95 in 5.0 mi Calm Calm - 0.01 in   Overcast
6:15 AM 12.2 °F - 6.8 °F 79% 29.95 in 8.0 mi Calm Calm - N/A   Overcast
6:35 AM 12.2 °F - 6.8 °F 79% 29.96 in 3.0 mi Calm Calm - N/A   Overcast
6:55 AM 12.2 °F - 6.8 °F 79% 29.97 in 10.0 mi Calm Calm - N/A   Partly Cloudy
7:15 AM 12.2 °F 6.1 °F 5.0 °F 73% 29.98 in 9.0 mi South 3.5 mph - N/A   Clear
7:35 AM 12.2 °F - 6.8 °F 79% 29.99 in 10.0 mi Calm Calm - 0.01 in   Clear
7:55 AM 12.2 °F - 3.2 °F 67% 30.00 in 10.0 mi Calm Calm - 0.01 in   Clear
8:15 AM 15.8 °F 8.6 °F 8.6 °F 73% 30.01 in 10.0 mi North 4.6 mph - N/A   Clear
8:35 AM 17.6 °F 9.3 °F 10.4 °F 73% 30.01 in 10.0 mi North 5.8 mph - N/A   Clear
8:55 AM 19.4 °F 8.6 °F 8.6 °F 63% 30.02 in 10.0 mi NNW 9.2 mph - N/A   Clear
9:15 AM 19.4 °F 9.5 °F 6.8 °F 58% 30.02 in 10.0 mi NNW 8.1 mph - N/A   Scattered Clouds
9:35 AM 19.4 °F 7.2 °F 6.8 °F 58% 30.04 in 10.0 mi NW 11.5 mph - N/A   Mostly Cloudy
9:55 AM 19.4 °F 6.6 °F 6.8 °F 58% 30.05 in 10.0 mi North 12.7 mph 19.6 mph N/A   Mostly Cloudy
10:15 AM 19.4 °F 5.5 °F 5.0 °F 54% 30.05 in 10.0 mi North 15.0 mph 18.4 mph N/A   Overcast
10:35 AM 19.4 °F 7.9 °F 5.0 °F 54% 30.06 in 10.0 mi NW 10.4 mph - N/A   Overcast
10:55 AM 19.4 °F 6.0 °F 5.0 °F 54% 30.06 in 10.0 mi North 13.8 mph 18.4 mph N/A   Overcast
11:15 AM 19.4 °F 8.6 °F 3.2 °F 49% 30.06 in 10.0 mi North 9.2 mph - N/A   Overcast
11:35 AM 19.4 °F 11.5 °F 5.0 °F 54% 30.06 in 10.0 mi WNW 5.8 mph - N/A   Overcast
11:55 AM 21.2 °F 9.5 °F 5.0 °F 50% 30.05 in 10.0 mi NNW 11.5 mph - N/A   Overcast
12:15 PM 21.2 °F 10.9 °F 3.2 °F 46% 30.04 in 10.0 mi NNW 9.2 mph - N/A   Mostly Cloudy
12:35 PM 21.2 °F 8.3 °F 3.2 °F 46% 30.04 in 10.0 mi North 13.8 mph 18.4 mph N/A   Mostly Cloudy
12:55 PM 21.2 °F 8.9 °F 3.2 °F 46% 30.04 in 10.0 mi North 12.7 mph - N/A   Mostly Cloudy
1:15 PM 23.0 °F 13.9 °F 5.0 °F 46% 30.03 in 10.0 mi NW 8.1 mph 17.3 mph N/A   Mostly Cloudy
1:35 PM 21.2 °F 10.1 °F 3.2 °F 46% 30.04 in 10.0 mi NNW 10.4 mph - N/A   Mostly Cloudy
1:55 PM 21.2 °F 10.1 °F 5.0 °F 50% 30.04 in 10.0 mi NNW 10.4 mph - N/A   Overcast
2:15 PM 21.2 °F 8.3 °F 6.8 °F 54% 30.04 in 10.0 mi North 13.8 mph 17.3 mph N/A   Mostly Cloudy
2:35 PM 23.0 °F 10.1 °F 5.0 °F 46% 30.04 in 10.0 mi North 15.0 mph - N/A   Scattered Clouds
2:55 PM - - - N/A% 30.04 in 10.0 mi NNW 12.7 mph 19.6 mph N/A   Clear
3:15 PM 21.2 °F 10.9 °F 3.2 °F 46% 30.05 in 10.0 mi NNW 9.2 mph - N/A   Scattered Clouds
3:35 PM 21.2 °F 12.6 °F 3.2 °F 46% 30.06 in 10.0 mi North 6.9 mph - N/A   Scattered Clouds
3:55 PM 21.2 °F 12.6 °F 3.2 °F 46% 30.06 in 10.0 mi NW 6.9 mph - N/A   Mostly Cloudy
4:15 PM 21.2 °F 10.9 °F 3.2 °F 46% 30.06 in 10.0 mi NNW 9.2 mph - N/A   Overcast
4:35 PM - - - N/A% 30.06 in 10.0 mi WNW 6.9 mph - N/A   Mostly Cloudy
4:55 PM - - - N/A% 30.07 in 10.0 mi WNW 5.8 mph - N/A   Mostly Cloudy
5:15 PM 21.2 °F 14.9 °F 1.4 °F 42% 30.09 in 10.0 mi NNW 4.6 mph - N/A   Mostly Cloudy
5:35 PM 21.2 °F 14.9 °F 3.2 °F 46% 30.10 in 10.0 mi WNW 4.6 mph - N/A   Overcast
5:55 PM 21.2 °F 12.6 °F 3.2 °F 46% 30.11 in 10.0 mi WNW 6.9 mph - N/A   Mostly Cloudy
6:15 PM 21.2 °F 13.6 °F 3.2 °F 46% 30.12 in 10.0 mi NW 5.8 mph - N/A   Mostly Cloudy
6:35 PM 21.2 °F 16.4 °F 3.2 °F 46% 30.12 in 10.0 mi WNW 3.5 mph - N/A   Overcast
6:55 PM - - - N/A% 30.12 in 10.0 mi West 4.6 mph - N/A   Partly Cloudy
7:15 PM 19.4 °F 12.8 °F 3.2 °F 49% 30.13 in 10.0 mi WSW 4.6 mph - N/A   Clear
7:35 PM - - - N/A% 30.13 in 10.0 mi West 6.9 mph - N/A   Clear
7:55 PM 17.6 °F 12.3 °F 3.2 °F 53% 30.14 in 10.0 mi West 3.5 mph - N/A   Clear
8:15 PM 15.8 °F - 1.4 °F 53% 30.15 in 10.0 mi Calm Calm - N/A   Clear
8:35 PM 12.2 °F - -0.4 °F 57% 30.15 in 10.0 mi Calm Calm - N/A   Clear
8:55 PM 10.4 °F - 1.4 °F 67% 30.16 in 10.0 mi Calm Calm - N/A   Clear
9:15 PM 8.6 °F - 1.4 °F 73% 30.16 in 10.0 mi Calm Calm - N/A   Clear
9:35 PM 8.6 °F - 1.4 °F 73% 30.16 in 10.0 mi Calm Calm - N/A   Clear
9:55 PM 6.8 °F - 1.4 °F 79% 30.17 in 10.0 mi Calm Calm - N/A   Clear
10:15 PM 6.8 °F - 1.4 °F 79% 30.17 in 10.0 mi Calm Calm - N/A   Clear
10:35 PM 5.0 °F - -2.2 °F 72% 30.17 in 10.0 mi Calm Calm - N/A   Clear
10:55 PM 5.0 °F - -0.4 °F 78% 30.17 in 10.0 mi Calm Calm - N/A   Clear
11:15 PM 3.2 °F - -4.0 °F 72% 30.18 in 10.0 mi Calm Calm - N/A   Clear
11:35 PM 3.2 °F - -4.0 °F 72% 30.18 in 10.0 mi Calm Calm - N/A   Clear
11:55 PM 3.2 °F - -2.2 °F 78% 30.19 in 10.0 mi Calm Calm - N/A   Clear